sat.trackr.live / text

‹ back to catalog

DMC3-FM3

NORAD 40717 · 2015-032C

PAYLOAD ACTIVE UNKNOWN

§ Identity

Operator
Country
UK
Launch date
2015-07-10
Launch site
SRILR
Launch vehicle
Mass (kg)
RCS (m²)
1.52

Purposes: earth_obs

External: N2YO · Heavens-Above · Gunter

§ Orbital elements

Epoch: 2026-09-20T03:23:55.311360Z

Period
96.92 min
Inclination
97.6410°
Eccentricity
0.0006744
Mean motion
14.85819680 rev/d
Perigee alt
606.3 km
Apogee alt
615.7 km
Semi-major
6,989.2 km
B*
6.5131e-5
RAAN
127.9783°
Arg perigee
99.8512°
Mean anomaly
260.3466°
Rev number
60,401

§ Raw data

DMC3-FM31 40717U 15032C   26263.14161240  .00000515  00000+0  65131-4 0  99982 40717  97.6410 127.9783 0006744  99.8512 260.3466 14.85819680604018

JSON: /api/v1/satellites/40717 · /tle

For live sub-satellite position, see the globe view (requires WebGL).

§ Visibility from observer

Set your observer location to see the next 7 days of passes ≥ 10°. The values pass through the URL so the page stays shareable.

No JS? Fill the form by hand. The geolocation button needs JavaScript.

§ Radio — SatNOGS DB

ModeDescriptionDownlinkUplink
FM Mode X (375MHz) 8.213 GHz
BPSK Telemetry 2.237 GHz

2 transmitters · refreshed weekly from db.satnogs.org